| time (UTC) | temp F | wind direction | speed MPH | gust MPH | rain 1hr in | rain 24hr in | rain mn in | humidity % | barometer mb |
| 20260505160555 | 60 | 22 | 0.0 | 0.0 | 0.00 | 0.00 | 0.00 | 59 | 987.7 |
| 20260505152555 | 61 | 22 | 0.0 | 0.0 | 0.00 | 0.00 | 0.00 | 58 | 988.2 |
| 20260505151555 | 61 | 0 | 0.0 | 0.0 | 0.00 | 0.00 | 0.00 | 58 | 988.0 |
| 20260505150555 | 61 | 0 | 0.0 | 0.0 | 0.00 | 0.00 | 0.00 | 57 | 988.0 |
| 20260505140555 | 62 | 0 | 0.0 | 0.0 | 0.00 | 0.00 | 0.00 | 59 | 988.2 |
| 20260505124555 | 63 | 0 | 0.0 | 0.0 | 0.00 | 0.00 | 0.00 | 60 | 988.5 |
| 20260505123555 | 63 | 0 | 0.0 | 0.0 | 0.00 | 0.00 | 0.00 | 59 | 988.5 |
| 20260505122555 | 63 | 0 | 0.0 | 0.0 | 0.00 | 0.00 | 0.00 | 59 | 988.5 |
| 20260505121555 | 64 | 0 | 0.0 | 0.0 | 0.00 | 0.00 | 0.00 | 59 | 988.5 |
| 20260505120555 | 64 | 0 | 0.0 | 0.0 | 0.00 | 0.00 | 0.00 | 59 | 988.7 |
| 20260505115555 | 64 | 0 | 0.0 | 0.0 | 0.00 | 0.00 | 0.00 | 58 | 988.7 |
| 20260505114555 | 65 | 270 | 45.0 | 0.0 | 0.00 | 0.00 | 0.00 | 59 | 988.5 |
| 20260505113555 | 65 | 0 | 0.0 | 0.0 | 0.00 | 0.00 | 0.00 | 59 | 988.7 |
| 20260505112555 | 65 | 0 | 0.0 | 0.0 | 0.00 | 0.00 | 0.00 | 60 | 988.5 |
| 20260505111555 | 64 | 0 | 0.0 | 0.0 | 0.00 | 0.00 | 0.00 | 61 | 988.7 |
| 20260505110555 | 64 | 0 | 0.0 | 0.0 | 0.00 | 0.00 | 0.00 | 61 | 988.7 |
| 20260505101555 | 60 | 0 | 0.0 | 0.0 | 0.00 | 0.00 | 0.00 | 68 | 989.2 |
| 20260505100555 | 59 | 0 | 0.0 | 0.0 | 0.00 | 0.00 | 0.00 | 70 | 989.2 |
| 20260505095555 | 58 | 0 | 0.0 | 0.0 | 0.00 | 0.00 | 0.00 | 70 | 989.2 |
| 20260505094555 | 57 | 0 | 0.0 | 0.0 | 0.00 | 0.00 | 0.00 | 73 | 989.2 |
| 20260505093555 | 56 | 0 | 0.0 | 0.0 | 0.00 | 0.00 | 0.00 | 73 | 989.2 |
| 20260505092555 | 56 | 0 | 0.0 | 0.0 | 0.00 | 0.00 | 0.00 | 74 | 989.2 |
| 20260505091555 | 55 | 0 | 0.0 | 0.0 | 0.00 | 0.00 | 0.00 | 74 | 989.4 |
| 20260505090555 | 55 | 0 | 0.0 | 0.0 | 0.00 | 0.00 | 0.00 | 75 | 989.2 |
| 20260505085555 | 55 | 0 | 0.0 | 0.0 | 0.00 | 0.00 | 0.00 | 75 | 989.4 |
| 20260505084555 | 56 | 0 | 0.0 | 0.0 | 0.00 | 0.00 | 0.00 | 76 | 989.5 |
| 20260505083555 | 55 | 0 | 0.0 | 0.0 | 0.00 | 0.00 | 0.00 | 77 | 989.5 |
| 20260505082555 | 54 | 0 | 0.0 | 0.0 | 0.00 | 0.00 | 0.00 | 79 | 989.5 |
| 20260505081555 | 53 | 0 | 0.0 | 0.0 | 0.00 | 0.00 | 0.00 | 80 | 989.5 |
| 20260505080555 | 52 | 0 | 0.0 | 0.0 | 0.00 | 0.00 | 0.00 | 81 | 989.5 |
| 20260505075555 | 51 | 0 | 0.0 | 0.0 | 0.00 | 0.00 | 0.00 | 83 | 989.5 |
| 20260505074555 | 50 | 0 | 0.0 | 0.0 | 0.00 | 0.00 | 0.00 | 84 | 989.4 |
| 20260505073555 | 50 | 0 | 0.0 | 0.0 | 0.00 | 0.00 | 0.00 | 84 | 989.5 |
| 20260505072555 | 49 | 0 | 0.0 | 0.0 | 0.00 | 0.00 | 0.00 | 85 | 989.5 |
| 20260505071555 | 49 | 0 | 0.0 | 0.0 | 0.00 | 0.00 | 0.00 | 86 | 989.7 |
| 20260505070555 | 49 | 0 | 0.0 | 0.0 | 0.00 | 0.00 | 0.00 | 87 | 989.7 |
| 20260505065555 | 48 | 0 | 0.0 | 0.0 | 0.00 | 0.00 | 0.00 | 88 | 989.7 |
| 20260505064555 | 47 | 0 | 0.0 | 0.0 | 0.00 | 0.00 | 0.00 | 89 | 989.9 |
| 20260505063555 | 46 | 0 | 0.0 | 0.0 | 0.00 | 0.00 | 0.00 | 89 | 989.9 |
| 20260505062555 | 45 | 0 | 0.0 | 0.0 | 0.00 | 0.00 | 0.00 | 89 | 989.9 |
| 20260505061555 | 45 | 0 | 0.0 | 0.0 | 0.00 | 0.00 | 0.00 | 89 | 990.0 |
| 20260505060555 | 44 | 0 | 0.0 | 0.0 | 0.00 | 0.00 | 0.00 | 89 | 990.0 |
| 20260505055555 | 43 | 315 | 183.0 | 0.0 | 0.00 | 0.00 | 0.00 | 89 | 990.0 |
| 20260505054555 | 43 | 0 | 0.0 | 0.0 | 0.00 | 0.00 | 0.00 | 89 | 990.0 |
| 20260505053555 | 42 | 0 | 0.0 | 0.0 | 0.00 | 0.00 | 0.00 | 89 | 990.0 |
| 20260505052555 | 42 | 0 | 0.0 | 0.0 | 0.00 | 0.00 | 0.00 | 89 | 990.0 |
| 20260505051555 | 42 | 0 | 0.0 | 0.0 | 0.00 | 0.00 | 0.00 | 89 | 990.0 |
| 20260505050555 | 42 | 0 | 0.0 | 0.0 | 0.00 | 0.00 | 0.00 | 89 | 989.9 |
| 20260505041555 | 40 | 0 | 0.0 | 0.0 | 0.00 | 0.00 | 0.00 | 88 | 989.7 |
| 20260505040555 | 40 | 0 | 0.0 | 0.0 | 0.00 | 0.00 | 0.00 | 88 | 990.0 |
| 20260505035555 | 40 | 0 | 0.0 | 0.0 | 0.00 | 0.00 | 0.00 | 88 | 989.9 |
| 20260505034555 | 40 | 0 | 0.0 | 0.0 | 0.00 | 0.00 | 0.00 | 88 | 989.7 |
| 20260505033555 | 41 | 0 | 0.0 | 0.0 | 0.00 | 0.00 | 0.00 | 88 | 990.0 |
| 20260505032555 | 41 | 0 | 0.0 | 0.0 | 0.00 | 0.00 | 0.00 | 88 | 990.0 |
| 20260505031555 | 41 | 0 | 0.0 | 0.0 | 0.00 | 0.00 | 0.00 | 88 | 990.0 |
| 20260505030555 | 41 | 0 | 0.0 | 0.0 | 0.00 | 0.00 | 0.00 | 87 | 990.0 |
| 20260505025555 | 41 | 0 | 0.0 | 0.0 | 0.00 | 0.00 | 0.00 | 87 | 990.0 |
| 20260505024555 | 41 | 0 | 0.0 | 0.0 | 0.00 | 0.00 | 0.00 | 87 | 990.0 |
| 20260505023555 | 41 | 0 | 0.0 | 0.0 | 0.00 | 0.00 | 0.00 | 87 | 990.0 |
| 20260505022555 | 42 | 0 | 0.0 | 0.0 | 0.00 | 0.00 | 0.00 | 87 | 990.0 |
| 20260505021555 | 42 | 0 | 0.0 | 0.0 | 0.00 | 0.00 | 0.00 | 88 | 990.0 |
| 20260505020555 | 42 | 0 | 0.0 | 0.0 | 0.00 | 0.00 | 0.00 | 88 | 990.2 |
| 20260505015555 | 42 | 0 | 0.0 | 0.0 | 0.00 | 0.00 | 0.00 | 88 | 990.2 |
| 20260505014555 | 42 | 0 | 0.0 | 0.0 | 0.00 | 0.00 | 0.00 | 88 | 990.0 |
| 20260505013555 | 42 | 0 | 0.0 | 0.0 | 0.00 | 0.00 | 0.00 | 88 | 990.0 |
| 20260505012555 | 42 | 0 | 0.0 | 0.0 | 0.00 | 0.00 | 0.00 | 88 | 990.0 |
| 20260505011555 | 42 | 0 | 0.0 | 0.0 | 0.00 | 0.00 | 0.00 | 88 | 990.2 |
| 20260505010555 | 42 | 0 | 0.0 | 0.0 | 0.00 | 0.00 | 0.00 | 88 | 990.0 |
| 20260505005555 | 42 | 0 | 0.0 | 0.0 | 0.00 | 0.00 | 0.00 | 88 | 990.2 |
| 20260505004555 | 42 | 0 | 0.0 | 0.0 | 0.00 | 0.00 | 0.00 | 88 | 990.2 |
| 20260505003555 | 42 | 0 | 0.0 | 0.0 | 0.00 | 0.00 | 0.00 | 88 | 990.2 |
| 20260505002555 | 42 | 0 | 0.0 | 0.0 | 0.00 | 0.00 | 0.00 | 88 | 990.4 |
| 20260505001555 | 42 | 0 | 0.0 | 0.0 | 0.00 | 0.00 | 0.00 | 87 | 990.5 |
| 20260505000555 | 43 | 0 | 0.0 | 0.0 | 0.00 | 0.00 | 0.00 | 87 | 990.5 |
| 20260504235555 | 43 | 0 | 0.0 | 0.0 | 0.00 | 0.00 | 0.00 | 87 | 990.7 |
| 20260504234555 | 43 | 0 | 0.0 | 0.0 | 0.00 | 0.00 | 0.00 | 87 | 990.7 |
| 20260504233555 | 43 | 0 | 0.0 | 0.0 | 0.00 | 0.00 | 0.00 | 87 | 990.7 |
| 20260504232555 | 43 | 0 | 0.0 | 0.0 | 0.00 | 0.00 | 0.00 | 87 | 990.7 |
| 20260504231555 | 43 | 0 | 0.0 | 0.0 | 0.00 | 0.00 | 0.00 | 87 | 990.9 |
| 20260504230555 | 43 | 0 | 0.0 | 0.0 | 0.00 | 0.00 | 0.00 | 86 | 990.9 |
| 20260504225555 | 44 | 0 | 0.0 | 0.0 | 0.00 | 0.00 | 0.00 | 86 | 990.7 |
| 20260504224555 | 44 | 0 | 0.0 | 0.0 | 0.00 | 0.00 | 0.00 | 86 | 990.9 |
| 20260504223555 | 44 | 0 | 0.0 | 0.0 | 0.00 | 0.00 | 0.00 | 85 | 991.0 |
| 20260504222555 | 44 | 0 | 0.0 | 0.0 | 0.00 | 0.00 | 0.00 | 85 | 991.0 |
| 20260504221555 | 44 | 0 | 0.0 | 0.0 | 0.00 | 0.00 | 0.00 | 85 | 991.0 |
| 20260504220555 | 45 | 0 | 0.0 | 0.0 | 0.00 | 0.00 | 0.00 | 85 | 991.2 |
| 20260504215555 | 45 | 0 | 0.0 | 0.0 | 0.00 | 0.00 | 0.00 | 85 | 991.2 |
| 20260504214555 | 45 | 0 | 0.0 | 0.0 | 0.00 | 0.00 | 0.00 | 84 | 991.4 |
| 20260504213555 | 45 | 0 | 0.0 | 0.0 | 0.00 | 0.00 | 0.00 | 84 | 991.2 |
| 20260504212555 | 46 | 0 | 0.0 | 0.0 | 0.00 | 0.00 | 0.00 | 84 | 991.5 |
| 20260504211555 | 46 | 0 | 0.0 | 0.0 | 0.00 | 0.00 | 0.00 | 83 | 991.2 |
| 20260504210555 | 46 | 0 | 0.0 | 0.0 | 0.00 | 0.00 | 0.00 | 83 | 991.2 |
| 20260504205555 | 46 | 0 | 0.0 | 0.0 | 0.00 | 0.00 | 0.00 | 83 | 991.2 |
| 20260504204555 | 46 | 0 | 0.0 | 0.0 | 0.00 | 0.00 | 0.00 | 82 | 991.2 |
| 20260504203555 | 46 | 0 | 0.0 | 0.0 | 0.00 | 0.00 | 0.00 | 82 | 991.2 |
| 20260504202555 | 47 | 0 | 0.0 | 0.0 | 0.00 | 0.00 | 0.00 | 81 | 991.2 |
| 20260504201555 | 47 | 0 | 0.0 | 0.0 | 0.00 | 0.00 | 0.00 | 81 | 991.2 |
| 20260504200555 | 48 | 0 | 0.0 | 0.0 | 0.00 | 0.00 | 0.00 | 81 | 991.0 |
| 20260504195555 | 48 | 0 | 0.0 | 0.0 | 0.00 | 0.00 | 0.00 | 80 | 991.2 |
| 20260504194555 | 48 | 0 | 0.0 | 0.0 | 0.00 | 0.00 | 0.00 | 79 | 991.2 |
| 20260504193604 | 49 | 0 | 0.0 | 0.0 | 0.00 | 0.00 | 0.00 | 78 | 990.9 |
| 20260504192555 | 49 | 337 | 0.0 | 0.0 | 0.00 | 0.00 | 0.00 | 76 | 990.7 |
| 20260504191555 | 50 | 337 | 0.0 | 0.0 | 0.00 | 0.00 | 0.00 | 76 | 990.7 |
| 20260504190555 | 51 | 337 | 0.0 | 0.0 | 0.00 | 0.00 | 0.00 | 75 | 990.7 |
| 20260504185555 | 52 | 337 | 0.0 | 0.0 | 0.00 | 0.00 | 0.00 | 74 | 990.7 |
| 20260504184555 | 52 | 337 | 0.0 | 0.0 | 0.00 | 0.00 | 0.00 | 74 | 990.7 |
| 20260504183555 | 53 | 337 | 0.0 | 0.0 | 0.00 | 0.00 | 0.00 | 74 | 990.7 |
| 20260504182555 | 53 | 337 | 0.0 | 0.0 | 0.00 | 0.00 | 0.00 | 73 | 990.7 |
| 20260504181555 | 54 | 337 | 0.0 | 0.0 | 0.00 | 0.00 | 0.00 | 73 | 990.5 |
| 20260504180555 | 55 | 0 | 0.0 | 0.0 | 0.00 | 0.00 | 0.00 | 72 | 990.5 |
| 20260504175555 | 55 | 0 | 0.0 | 0.0 | 0.00 | 0.00 | 0.00 | 72 | 990.5 |
| 20260504174555 | 56 | 0 | 0.0 | 0.0 | 0.00 | 0.00 | 0.00 | 71 | 990.5 |
| 20260504173555 | 56 | 0 | 0.0 | 0.0 | 0.00 | 0.00 | 0.00 | 71 | 990.7 |
| 20260504172555 | 57 | 337 | 0.0 | 0.0 | 0.00 | 0.00 | 0.00 | 71 | 990.5 |
| 20260504171555 | 56 | 337 | 0.0 | 0.0 | 0.00 | 0.00 | 0.00 | 72 | 990.5 |
| 20260504170555 | 55 | 337 | 0.0 | 0.0 | 0.00 | 0.00 | 0.00 | 73 | 990.7 |